パンスターズ彗星

C/2021 R2 ( PanSTARRS )

English version
Home page
Updated on January 17, 2022

---------------------------------------------------------------------

・ プロフィール

発見日 2021年9月5日
発見光度 20.4等
発見者 Pan-STARRS 2 telescope (Haleakala)

・ 写真集

・ 軌道要素

Epoch 2022 Jan. 21.0 TT = JDT 2459600.5
T 2021 Dec. 25.66765 TT                                 Rudenko
q   7.3110639            (2000.0)            P               Q
z  +0.0005099      Peri.   32.34172     +0.91604585     -0.34760948
 +/-0.0000092      Node    16.28029     -0.26458846     -0.89864715
e   0.9962722      Incl.  134.46528     +0.30141822     +0.26758354
From 91 observations 2021 Aug. 28-Nov. 8, mean residual 0".5.

・ 光度変化

        m1 = 7.0 + 5 logΔ + 10.0 log r

---------------------------------------------------------------------

軌道要素はM.P.E.C. 2021-W31に掲載されたものです。
光度グラフはComet for Windowsで作成したものです。

---------------------------------------------------------------------

Copyright(C) Seiichi Yoshida (comet@aerith.net). All rights reserved.